User: anonymous
Location: Oshawa
(43.9000°N, 78.8670°W)
Time: 23:44:22
(UTC-04:00)
Language:

Cosmos 1821 Rocket - Orbit

View from above orbital plane
View from above orbital plane
View from above satellite
View from above satellite

Ground track
Ground track

The orbit data is extracted from the following two-line orbital elements,

1 17526U 87017B   14291.89587325  .00000037  00000-0  21761-4 0  1564
2 17526 082.9060 046.7148 0041322 154.0488 328.6894 13.76709493372562
Epoch (UTC): 18 October 2014 21:30:03
Eccentricity: 0.0041322
inclination: 82.9060°
perigee height: 945 km
apogee height: 1006 km
right ascension of ascending node: 46.7148°
argument of perigee: 154.0488°
revolutions per day: 13.76709493
mean anomaly at epoch: 328.6894°
orbit number at epoch: 37256

The dashed part of the orbit path shows where the satellite is in the earth's shadow,  

DLR